TimeCDT,TemperatureF,Dew PointF,Humidity,Sea Level PressureIn,VisibilityMPH,Wind Direction,Wind SpeedMPH,Gust SpeedMPH,PrecipitationIn,Events,Conditions,WindDirDegrees,DateUTC
12:15 AM,46.4,35.6,66,30.23,10.0,SSE,16.1,23.0,N/A,,Overcast,160,2013-04-22 05:15:00
12:35 AM,46.4,37.4,71,30.22,10.0,SSE,15.0,-,N/A,,Overcast,150,2013-04-22 05:35:00
12:55 AM,46.4,37.4,71,30.22,10.0,SSE,17.3,-,N/A,,Overcast,150,2013-04-22 05:55:00
1:15 AM,46.4,35.6,66,30.21,10.0,SSE,16.1,-,N/A,,Overcast,150,2013-04-22 06:15:00
1:35 AM,46.4,35.6,66,30.21,10.0,SSE,15.0,-,N/A,,Overcast,160,2013-04-22 06:35:00
1:55 AM,46.4,35.6,66,30.21,10.0,SSE,16.1,20.7,N/A,,Overcast,150,2013-04-22 06:55:00
2:15 AM,46.4,35.6,66,30.21,10.0,SSE,15.0,-,N/A,,Overcast,150,2013-04-22 07:15:00
2:35 AM,46.4,35.6,66,30.21,10.0,SSE,12.7,-,N/A,,Overcast,160,2013-04-22 07:35:00
2:55 AM,46.4,35.6,66,30.21,10.0,South,13.8,-,N/A,,Overcast,170,2013-04-22 07:55:00
3:15 AM,46.4,35.6,66,30.20,10.0,SSE,17.3,-,N/A,,Overcast,150,2013-04-22 08:15:00
3:35 AM,46.4,35.6,66,30.20,10.0,SSE,15.0,-,N/A,,Overcast,160,2013-04-22 08:35:00
3:55 AM,46.4,35.6,66,30.20,10.0,SSE,13.8,-,N/A,,Overcast,150,2013-04-22 08:55:00
4:15 AM,44.6,35.6,71,30.19,10.0,SE,12.7,-,N/A,,Overcast,140,2013-04-22 09:15:00
4:35 AM,44.6,35.6,71,30.21,10.0,SSW,4.6,-,N/A,,Overcast,200,2013-04-22 09:35:00
4:55 AM,44.6,35.6,71,30.21,10.0,South,5.8,-,N/A,,Overcast,190,2013-04-22 09:55:00
5:15 AM,44.6,37.4,76,30.21,10.0,SW,4.6,-,N/A,,Overcast,230,2013-04-22 10:15:00
5:35 AM,44.6,35.6,71,30.20,10.0,South,5.8,-,N/A,,Overcast,170,2013-04-22 10:35:00
5:55 AM,44.6,35.6,71,30.20,10.0,South,4.6,-,N/A,,Overcast,170,2013-04-22 10:55:00
6:15 AM,44.6,35.6,71,30.20,10.0,SSE,4.6,-,N/A,,Overcast,160,2013-04-22 11:15:00
6:35 AM,44.6,35.6,71,30.20,10.0,SE,5.8,-,N/A,,Overcast,140,2013-04-22 11:35:00
6:55 AM,44.6,35.6,71,30.20,10.0,SSE,5.8,-,N/A,,Overcast,150,2013-04-22 11:55:00
7:15 AM,44.6,35.6,71,30.20,10.0,SSE,6.9,-,N/A,,Mostly Cloudy,150,2013-04-22 12:15:00
7:35 AM,44.6,35.6,71,30.19,10.0,SSE,8.1,-,N/A,,Mostly Cloudy,150,2013-04-22 12:35:00
7:55 AM,44.6,35.6,71,30.19,10.0,SSE,6.9,-,N/A,,Overcast,150,2013-04-22 12:55:00
8:15 AM,46.4,35.6,66,30.19,10.0,SSE,6.9,-,N/A,,Overcast,160,2013-04-22 13:15:00
8:35 AM,46.4,35.6,66,30.19,10.0,SSE,9.2,-,N/A,,Mostly Cloudy,160,2013-04-22 13:35:00
8:55 AM,46.4,35.6,66,30.19,10.0,SSE,9.2,-,N/A,,Scattered Clouds,160,2013-04-22 13:55:00
9:15 AM,50.0,35.6,58,30.19,10.0,South,10.4,-,N/A,,Overcast,170,2013-04-22 14:15:00
10:15 AM,51.8,35.6,54,30.18,10.0,South,13.8,-,N/A,,Mostly Cloudy,180,2013-04-22 15:15:00
10:35 AM,53.6,37.4,54,30.18,10.0,SSE,13.8,-,N/A,,Overcast,160,2013-04-22 15:35:00
10:55 AM,53.6,37.4,54,30.18,10.0,SSE,16.1,-,N/A,,Mostly Cloudy,160,2013-04-22 15:55:00
11:15 AM,53.6,37.4,54,30.18,10.0,SSE,15.0,-,N/A,,Mostly Cloudy,160,2013-04-22 16:15:00
11:35 AM,55.4,37.4,51,30.17,10.0,South,15.0,-,N/A,,Scattered Clouds,170,2013-04-22 16:35:00
11:55 AM,55.4,37.4,51,30.16,10.0,South,13.8,-,N/A,,Scattered Clouds,180,2013-04-22 16:55:00
12:15 PM,57.2,37.4,48,30.16,10.0,South,12.7,-,N/A,,Mostly Cloudy,170,2013-04-22 17:15:00
12:35 PM,59.0,37.4,45,30.15,10.0,South,12.7,-,N/A,,Mostly Cloudy,170,2013-04-22 17:35:00
12:55 PM,59.0,39.2,48,30.14,10.0,SSE,9.2,-,N/A,,Mostly Cloudy,160,2013-04-22 17:55:00
1:15 PM,59.0,37.4,45,30.12,10.0,South,8.1,16.1,N/A,,Overcast,170,2013-04-22 18:15:00
1:35 PM,60.8,37.4,42,30.11,10.0,SSE,12.7,-,N/A,,Mostly Cloudy,160,2013-04-22 18:35:00
1:55 PM,62.6,39.2,42,30.10,10.0,South,12.7,-,N/A,,Mostly Cloudy,180,2013-04-22 18:55:00
2:15 PM,64.4,39.2,40,30.08,10.0,SSE,15.0,-,N/A,,Mostly Cloudy,160,2013-04-22 19:15:00
2:35 PM,62.6,37.4,39,30.08,10.0,South,17.3,-,N/A,,Mostly Cloudy,170,2013-04-22 19:35:00
2:55 PM,64.4,37.4,37,30.07,10.0,South,19.6,27.6,N/A,,Mostly Cloudy,170,2013-04-22 19:55:00
3:15 PM,64.4,37.4,37,30.06,10.0,SSE,12.7,19.6,N/A,,Mostly Cloudy,160,2013-04-22 20:15:00
3:35 PM,62.6,39.2,42,30.05,10.0,SSE,12.7,20.7,N/A,,Scattered Clouds,150,2013-04-22 20:35:00
3:55 PM,62.6,37.4,39,30.04,10.0,SSE,11.5,19.6,N/A,,Mostly Cloudy,150,2013-04-22 20:55:00
4:15 PM,64.4,37.4,37,30.03,10.0,SE,13.8,-,N/A,,Scattered Clouds,140,2013-04-22 21:15:00
4:35 PM,62.6,35.6,37,30.02,10.0,SSE,15.0,-,N/A,,Scattered Clouds,160,2013-04-22 21:35:00
4:55 PM,62.6,37.4,39,30.02,10.0,SE,17.3,20.7,N/A,,Mostly Cloudy,140,2013-04-22 21:55:00
5:15 PM,62.6,39.2,42,30.01,10.0,SSE,13.8,-,N/A,,Overcast,150,2013-04-22 22:15:00
5:35 PM,62.6,35.6,37,30.01,10.0,SSE,13.8,-,N/A,,Overcast,160,2013-04-22 22:35:00
5:55 PM,60.8,37.4,42,30.00,10.0,SSE,13.8,-,N/A,,Mostly Cloudy,150,2013-04-22 22:55:00
6:15 PM,62.6,37.4,39,30.00,10.0,SSE,16.1,-,N/A,,Mostly Cloudy,150,2013-04-22 23:15:00
6:35 PM,60.8,37.4,42,30.00,10.0,SSE,15.0,-,N/A,,Scattered Clouds,150,2013-04-22 23:35:00
6:55 PM,60.8,37.4,42,29.99,10.0,SSE,12.7,-,N/A,,Mostly Cloudy,150,2013-04-22 23:55:00
7:15 PM,59.0,37.4,45,29.99,10.0,SSE,11.5,-,N/A,,Scattered Clouds,150,2013-04-23 00:15:00
7:35 PM,57.2,39.2,51,29.99,10.0,SE,9.2,-,N/A,,Scattered Clouds,140,2013-04-23 00:35:00
7:55 PM,55.4,41.0,58,29.99,10.0,SE,8.1,-,N/A,,Scattered Clouds,140,2013-04-23 00:55:00
8:15 PM,53.6,41.0,62,30.00,10.0,SE,6.9,-,N/A,,Clear,140,2013-04-23 01:15:00
8:35 PM,53.6,41.0,62,30.00,10.0,SE,6.9,-,N/A,,Scattered Clouds,140,2013-04-23 01:35:00
8:55 PM,55.4,39.2,54,30.00,10.0,SE,8.1,-,N/A,,Mostly Cloudy,130,2013-04-23 01:55:00
9:15 PM,53.6,39.2,58,30.00,10.0,SE,9.2,-,N/A,,Mostly Cloudy,130,2013-04-23 02:15:00
9:35 PM,53.6,39.2,58,30.00,10.0,SE,8.1,-,N/A,,Scattered Clouds,130,2013-04-23 02:35:00
9:55 PM,53.6,39.2,58,30.00,10.0,SE,9.2,-,N/A,,Clear,140,2013-04-23 02:55:00
10:15 PM,53.6,39.2,58,30.01,10.0,SSE,10.4,-,N/A,,Mostly Cloudy,160,2013-04-23 03:15:00
10:35 PM,53.6,41.0,62,30.02,10.0,SSW,11.5,-,N/A,,Overcast,200,2013-04-23 03:35:00
10:55 PM,53.6,41.0,62,30.02,10.0,SSW,13.8,-,N/A,,Overcast,200,2013-04-23 03:55:00
11:15 PM,53.6,41.0,62,30.01,10.0,South,16.1,-,N/A,,Overcast,190,2013-04-23 04:15:00
11:35 PM,53.6,42.8,67,30.02,10.0,SW,13.8,-,N/A,,Overcast,220,2013-04-23 04:35:00
11:55 PM,51.8,44.6,76,30.02,10.0,WSW,11.5,-,N/A,,Overcast,240,2013-04-23 04:55:00